| time (UTC) | temp F | wind direction | speed MPH | gust MPH | rain 1hr in | rain 24hr in | rain mn in | humidity % | barometer mb |
| 20260503233952 | 84 | 176 | 7.0 | 20.0 | 0.00 | 0.00 | 0.00 | 13 | 910.2 |
| 20260503233848 | 84 | 148 | 7.0 | 20.0 | 0.00 | 0.00 | 0.00 | 12 | 910.2 |
| 20260503233743 | 85 | 184 | 7.0 | 20.0 | 0.00 | 0.00 | 0.00 | 12 | 910.1 |
| 20260503233637 | 85 | 170 | 7.0 | 20.0 | 0.00 | 0.00 | 0.00 | 12 | 910.1 |
| 20260503233314 | 85 | 155 | 8.0 | 18.0 | 0.00 | 0.00 | 0.00 | 12 | 910.1 |
| 20260503232730 | 85 | 209 | 8.0 | 21.0 | 0.00 | 0.00 | 0.00 | 12 | 910.1 |
| 20260503232623 | 85 | 157 | 8.0 | 21.0 | 0.00 | 0.00 | 0.00 | 12 | 910.1 |
| 20260503232518 | 85 | 173 | 8.0 | 21.0 | 0.00 | 0.00 | 0.00 | 12 | 910.1 |
| 20260503232414 | 85 | 135 | 8.0 | 21.0 | 0.00 | 0.00 | 0.00 | 12 | 910.1 |
| 20260503232309 | 86 | 173 | 8.0 | 21.0 | 0.00 | 0.00 | 0.00 | 12 | 910.1 |
| 20260503232204 | 86 | 185 | 8.0 | 21.0 | 0.00 | 0.00 | 0.00 | 12 | 910.1 |
| 20260503232100 | 86 | 180 | 8.0 | 21.0 | 0.00 | 0.00 | 0.00 | 11 | 910.1 |
| 20260503231956 | 86 | 180 | 8.0 | 21.0 | 0.00 | 0.00 | 0.00 | 11 | 910.1 |
| 20260503231853 | 86 | 130 | 8.0 | 21.0 | 0.00 | 0.00 | 0.00 | 12 | 910.1 |
| 20260503231745 | 87 | 172 | 8.0 | 21.0 | 0.00 | 0.00 | 0.00 | 11 | 910.1 |
| 20260503230937 | 88 | 191 | 8.0 | 20.0 | 0.00 | 0.00 | 0.00 | 11 | 910.1 |
| 20260503230835 | 88 | 169 | 8.0 | 20.0 | 0.00 | 0.00 | 0.00 | 11 | 910.0 |
| 20260503230513 | 88 | 211 | 8.0 | 20.0 | 0.00 | 0.00 | 0.00 | 12 | 910.0 |
| 20260503230410 | 88 | 173 | 8.0 | 20.0 | 0.00 | 0.00 | 0.00 | 12 | 910.0 |
| 20260503230050 | 88 | 170 | 7.0 | 20.0 | 0.00 | 0.00 | 0.00 | 12 | 909.9 |
| 20260503225946 | 88 | 192 | 7.0 | 17.0 | 0.00 | 0.00 | 0.00 | 12 | 910.0 |
| 20260503225406 | 88 | 205 | 6.0 | 14.0 | 0.00 | 0.00 | 0.00 | 12 | 910.1 |
| 20260503225300 | 88 | 188 | 6.0 | 14.0 | 0.00 | 0.00 | 0.00 | 12 | 910.1 |
| 20260503225156 | 88 | 198 | 6.0 | 12.0 | 0.00 | 0.00 | 0.00 | 12 | 910.1 |
| 20260503225054 | 88 | 182 | 5.0 | 12.0 | 0.00 | 0.00 | 0.00 | 12 | 910.1 |
| 20260503224949 | 88 | 202 | 5.0 | 12.0 | 0.00 | 0.00 | 0.00 | 12 | 910.0 |
| 20260503224841 | 88 | 184 | 5.0 | 11.0 | 0.00 | 0.00 | 0.00 | 12 | 910.1 |
| 20260503224512 | 88 | 184 | 5.0 | 21.0 | 0.00 | 0.00 | 0.00 | 12 | 910.1 |
| 20260503224406 | 88 | 199 | 5.0 | 21.0 | 0.00 | 0.00 | 0.00 | 12 | 910.2 |
| 20260503224303 | 88 | 175 | 5.0 | 21.0 | 0.00 | 0.00 | 0.00 | 12 | 910.2 |
| 20260503224156 | 88 | 173 | 6.0 | 21.0 | 0.00 | 0.00 | 0.00 | 12 | 910.3 |
| 20260503224054 | 88 | 167 | 6.0 | 21.0 | 0.00 | 0.00 | 0.00 | 12 | 910.3 |
| 20260503223731 | 88 | 159 | 7.0 | 21.0 | 0.00 | 0.00 | 0.00 | 12 | 910.4 |
| 20260503223628 | 88 | 194 | 7.0 | 21.0 | 0.00 | 0.00 | 0.00 | 12 | 910.3 |
| 20260503223305 | 88 | 173 | 7.0 | 21.0 | 0.00 | 0.00 | 0.00 | 12 | 910.4 |
| 20260503223158 | 88 | 183 | 7.0 | 21.0 | 0.00 | 0.00 | 0.00 | 12 | 910.4 |
| 20260503223056 | 88 | 155 | 6.0 | 21.0 | 0.00 | 0.00 | 0.00 | 12 | 910.5 |
| 20260503222952 | 88 | 179 | 6.0 | 21.0 | 0.00 | 0.00 | 0.00 | 12 | 910.4 |
| 20260503222849 | 88 | 182 | 6.0 | 21.0 | 0.00 | 0.00 | 0.00 | 12 | 910.4 |
| 20260503222745 | 88 | 168 | 6.0 | 21.0 | 0.00 | 0.00 | 0.00 | 12 | 910.3 |
| 20260503222423 | 88 | 181 | 6.0 | 16.0 | 0.00 | 0.00 | 0.00 | 12 | 910.5 |
| 20260503222320 | 88 | 173 | 6.0 | 16.0 | 0.00 | 0.00 | 0.00 | 12 | 910.5 |
| 20260503222216 | 88 | 170 | 6.0 | 16.0 | 0.00 | 0.00 | 0.00 | 12 | 910.5 |
| 20260503222113 | 88 | 234 | 6.0 | 16.0 | 0.00 | 0.00 | 0.00 | 12 | 910.6 |
| 20260503222010 | 88 | 190 | 5.0 | 16.0 | 0.00 | 0.00 | 0.00 | 12 | 910.6 |
| 20260503221907 | 88 | 178 | 5.0 | 16.0 | 0.00 | 0.00 | 0.00 | 12 | 910.6 |
| 20260503221800 | 88 | 164 | 4.0 | 16.0 | 0.00 | 0.00 | 0.00 | 12 | 910.6 |
| 20260503221437 | 88 | 161 | 3.0 | 20.0 | 0.00 | 0.00 | 0.00 | 12 | 910.7 |
| 20260503221330 | 88 | 154 | 2.0 | 20.0 | 0.00 | 0.00 | 0.00 | 12 | 910.7 |
| 20260503221225 | 88 | 161 | 2.0 | 20.0 | 0.00 | 0.00 | 0.00 | 12 | 910.6 |
| 20260503221118 | 88 | 143 | 2.0 | 20.0 | 0.00 | 0.00 | 0.00 | 13 | 910.7 |
| 20260503221013 | 88 | 140 | 2.0 | 20.0 | 0.00 | 0.00 | 0.00 | 12 | 910.8 |
| 20260503220907 | 88 | 140 | 2.0 | 20.0 | 0.00 | 0.00 | 0.00 | 12 | 910.8 |
| 20260503220543 | 88 | 131 | 5.0 | 20.0 | 0.00 | 0.00 | 0.00 | 12 | 911.0 |
| 20260503220436 | 88 | 80 | 6.0 | 20.0 | 0.00 | 0.00 | 0.00 | 12 | 911.0 |
| 20260503220333 | 88 | 134 | 6.0 | 20.0 | 0.00 | 0.00 | 0.00 | 12 | 910.9 |
| 20260503220231 | 88 | 128 | 7.0 | 20.0 | 0.00 | 0.00 | 0.00 | 12 | 910.9 |
| 20260503220125 | 87 | 167 | 7.0 | 20.0 | 0.00 | 0.00 | 0.00 | 12 | 911.0 |
| 20260503220022 | 87 | 140 | 7.0 | 20.0 | 0.00 | 0.00 | 0.00 | 12 | 911.0 |
| 20260503215653 | 87 | 189 | 8.0 | 20.0 | 0.00 | 0.00 | 0.00 | 12 | 911.2 |
| 20260503215548 | 87 | 180 | 8.0 | 20.0 | 0.00 | 0.00 | 0.00 | 12 | 911.2 |
| 20260503215441 | 87 | 172 | 8.0 | 18.0 | 0.00 | 0.00 | 0.00 | 12 | 911.1 |
| 20260503215335 | 87 | 184 | 8.0 | 18.0 | 0.00 | 0.00 | 0.00 | 13 | 911.1 |
| 20260503215232 | 87 | 178 | 8.0 | 18.0 | 0.00 | 0.00 | 0.00 | 12 | 911.1 |
| 20260503215123 | 87 | 185 | 8.0 | 18.0 | 0.00 | 0.00 | 0.00 | 12 | 911.1 |
| 20260503214759 | 88 | 184 | 7.0 | 18.0 | 0.00 | 0.00 | 0.00 | 12 | 911.2 |
| 20260503214434 | 88 | 198 | 5.0 | 13.0 | 0.00 | 0.00 | 0.00 | 12 | 911.2 |
| 20260503214108 | 88 | 157 | 4.0 | 13.0 | 0.00 | 0.00 | 0.00 | 12 | 911.2 |
| 20260503214005 | 88 | 169 | 5.0 | 13.0 | 0.00 | 0.00 | 0.00 | 12 | 911.1 |
| 20260503213859 | 88 | 162 | 5.0 | 13.0 | 0.00 | 0.00 | 0.00 | 12 | 911.2 |
| 20260503213756 | 88 | 159 | 5.0 | 13.0 | 0.00 | 0.00 | 0.00 | 12 | 911.3 |
| 20260503213651 | 88 | 138 | 5.0 | 13.0 | 0.00 | 0.00 | 0.00 | 12 | 911.2 |
| 20260503213548 | 88 | 139 | 5.0 | 13.0 | 0.00 | 0.00 | 0.00 | 12 | 911.3 |
| 20260503213223 | 88 | 182 | 6.0 | 13.0 | 0.00 | 0.00 | 0.00 | 12 | 911.4 |
| 20260503213117 | 88 | 209 | 6.0 | 13.0 | 0.00 | 0.00 | 0.00 | 12 | 911.4 |
| 20260503213014 | 88 | 173 | 6.0 | 13.0 | 0.00 | 0.00 | 0.00 | 12 | 911.4 |
| 20260503212909 | 88 | 123 | 6.0 | 13.0 | 0.00 | 0.00 | 0.00 | 12 | 911.3 |
| 20260503212544 | 88 | 194 | 7.0 | 13.0 | 0.00 | 0.00 | 0.00 | 12 | 911.4 |
| 20260503212439 | 88 | 153 | 6.0 | 13.0 | 0.00 | 0.00 | 0.00 | 12 | 911.4 |
| 20260503212110 | 88 | 208 | 6.0 | 13.0 | 0.00 | 0.00 | 0.00 | 12 | 911.4 |
| 20260503212005 | 88 | 168 | 6.0 | 13.0 | 0.00 | 0.00 | 0.00 | 12 | 911.5 |
| 20260503211858 | 88 | 154 | 6.0 | 13.0 | 0.00 | 0.00 | 0.00 | 12 | 911.5 |
| 20260503211754 | 88 | 179 | 5.0 | 13.0 | 0.00 | 0.00 | 0.00 | 12 | 911.5 |
| 20260503211652 | 88 | 197 | 5.0 | 12.0 | 0.00 | 0.00 | 0.00 | 12 | 911.5 |
| 20260503211550 | 88 | 150 | 5.0 | 12.0 | 0.00 | 0.00 | 0.00 | 12 | 911.5 |
| 20260503211225 | 88 | 185 | 5.0 | 12.0 | 0.00 | 0.00 | 0.00 | 12 | 911.5 |
| 20260503211119 | 87 | 129 | 5.0 | 12.0 | 0.00 | 0.00 | 0.00 | 12 | 911.6 |
| 20260503211013 | 87 | 180 | 5.0 | 12.0 | 0.00 | 0.00 | 0.00 | 12 | 911.6 |
| 20260503210907 | 87 | 171 | 5.0 | 12.0 | 0.00 | 0.00 | 0.00 | 12 | 911.5 |
| 20260503210543 | 87 | 142 | 3.0 | 10.0 | 0.00 | 0.00 | 0.00 | 13 | 911.5 |
| 20260503210438 | 86 | 173 | 2.0 | 10.0 | 0.00 | 0.00 | 0.00 | 13 | 911.5 |
| 20260503210116 | 86 | 153 | 1.0 | 6.0 | 0.00 | 0.00 | 0.00 | 13 | 911.6 |
| 20260503210011 | 86 | 142 | 1.0 | 6.0 | 0.00 | 0.00 | 0.00 | 13 | 911.6 |
| 20260503205904 | 85 | 185 | 1.0 | 6.0 | 0.00 | 0.00 | 0.00 | 13 | 911.7 |
| 20260503205802 | 85 | 141 | 1.0 | 6.0 | 0.00 | 0.00 | 0.00 | 13 | 911.8 |
| 20260503205655 | 85 | 144 | 1.0 | 8.0 | 0.00 | 0.00 | 0.00 | 13 | 911.7 |
| 20260503205553 | 85 | 192 | 1.0 | 8.0 | 0.00 | 0.00 | 0.00 | 14 | 911.7 |
| 20260503205448 | 85 | 188 | 2.0 | 8.0 | 0.00 | 0.00 | 0.00 | 13 | 911.8 |
| 20260503205344 | 85 | 169 | 2.0 | 8.0 | 0.00 | 0.00 | 0.00 | 13 | 911.8 |
| 20260503205241 | 85 | 169 | 2.0 | 8.0 | 0.00 | 0.00 | 0.00 | 13 | 911.8 |
| 20260503205135 | 85 | 155 | 2.0 | 8.0 | 0.00 | 0.00 | 0.00 | 13 | 911.8 |
| 20260503204333 | 85 | 155 | 2.0 | 9.0 | 0.00 | 0.00 | 0.00 | 13 | 911.9 |
| 20260503204230 | 85 | 140 | 2.0 | 9.0 | 0.00 | 0.00 | 0.00 | 13 | 911.9 |
| 20260503204127 | 86 | 168 | 2.0 | 9.0 | 0.00 | 0.00 | 0.00 | 13 | 912.0 |
| 20260503204022 | 86 | 154 | 2.0 | 9.0 | 0.00 | 0.00 | 0.00 | 13 | 912.0 |
| 20260503203917 | 86 | 164 | 3.0 | 9.0 | 0.00 | 0.00 | 0.00 | 13 | 912.0 |
| 20260503203815 | 86 | 154 | 3.0 | 9.0 | 0.00 | 0.00 | 0.00 | 13 | 912.1 |
| 20260503203451 | 86 | 179 | 2.0 | 11.0 | 0.00 | 0.00 | 0.00 | 13 | 912.2 |
| 20260503203345 | 86 | 127 | 3.0 | 11.0 | 0.00 | 0.00 | 0.00 | 13 | 912.2 |
| 20260503203243 | 86 | 129 | 3.0 | 11.0 | 0.00 | 0.00 | 0.00 | 13 | 912.1 |
| 20260503203136 | 86 | 134 | 3.0 | 11.0 | 0.00 | 0.00 | 0.00 | 13 | 912.1 |
| 20260503203029 | 86 | 180 | 4.0 | 11.0 | 0.00 | 0.00 | 0.00 | 13 | 912.1 |
| 20260503202445 | 87 | 191 | 4.0 | 11.0 | 0.00 | 0.00 | 0.00 | 13 | 912.3 |
| 20260503202340 | 87 | 167 | 4.0 | 11.0 | 0.00 | 0.00 | 0.00 | 13 | 912.3 |
| 20260503202234 | 87 | 210 | 4.0 | 11.0 | 0.00 | 0.00 | 0.00 | 13 | 912.4 |
| 20260503201650 | 87 | 178 | 3.0 | 8.0 | 0.00 | 0.00 | 0.00 | 13 | 912.5 |
| 20260503201547 | 86 | 158 | 3.0 | 11.0 | 0.00 | 0.00 | 0.00 | 13 | 912.5 |
| 20260503201441 | 86 | 148 | 4.0 | 11.0 | 0.00 | 0.00 | 0.00 | 13 | 912.5 |
| 20260503201338 | 86 | 188 | 4.0 | 11.0 | 0.00 | 0.00 | 0.00 | 13 | 912.5 |
| 20260503201011 | 86 | 169 | 5.0 | 11.0 | 0.00 | 0.00 | 0.00 | 13 | 912.5 |
| 20260503200905 | 86 | 192 | 5.0 | 11.0 | 0.00 | 0.00 | 0.00 | 13 | 912.5 |
| 20260503200801 | 86 | 173 | 5.0 | 11.0 | 0.00 | 0.00 | 0.00 | 13 | 912.6 |
| 20260503200431 | 86 | 186 | 5.0 | 11.0 | 0.00 | 0.00 | 0.00 | 13 | 912.6 |
| 20260503200328 | 86 | 174 | 5.0 | 11.0 | 0.00 | 0.00 | 0.00 | 13 | 912.5 |
| 20260503200222 | 86 | 200 | 4.0 | 11.0 | 0.00 | 0.00 | 0.00 | 13 | 912.6 |
| 20260503195900 | 87 | 181 | 3.0 | 11.0 | 0.00 | 0.00 | 0.00 | 12 | 912.6 |
| 20260503195758 | 87 | 205 | 3.0 | 11.0 | 0.00 | 0.00 | 0.00 | 13 | 912.6 |
| 20260503195650 | 86 | 144 | 3.0 | 11.0 | 0.00 | 0.00 | 0.00 | 13 | 912.6 |
| 20260503195542 | 86 | 169 | 2.0 | 8.0 | 0.00 | 0.00 | 0.00 | 13 | 912.6 |
| 20260503195436 | 86 | 188 | 2.0 | 7.0 | 0.00 | 0.00 | 0.00 | 13 | 912.6 |
| 20260503195111 | 86 | 142 | 2.0 | 7.0 | 0.00 | 0.00 | 0.00 | 13 | 912.7 |
| 20260503195008 | 86 | 179 | 2.0 | 9.0 | 0.00 | 0.00 | 0.00 | 13 | 912.7 |
| 20260503194904 | 86 | 117 | 2.0 | 9.0 | 0.00 | 0.00 | 0.00 | 13 | 912.7 |
| 20260503194801 | 86 | 135 | 2.0 | 9.0 | 0.00 | 0.00 | 0.00 | 13 | 912.8 |
| 20260503194656 | 86 | 105 | 2.0 | 9.0 | 0.00 | 0.00 | 0.00 | 13 | 912.8 |
| 20260503194332 | 86 | 164 | 2.0 | 9.0 | 0.00 | 0.00 | 0.00 | 13 | 913.0 |
| 20260503194223 | 86 | 121 | 2.0 | 9.0 | 0.00 | 0.00 | 0.00 | 13 | 912.9 |
| 20260503194116 | 86 | 111 | 2.0 | 9.0 | 0.00 | 0.00 | 0.00 | 13 | 912.9 |
| 20260503194014 | 86 | 97 | 2.0 | 10.0 | 0.00 | 0.00 | 0.00 | 13 | 912.8 |
| 20260503193908 | 86 | 86 | 2.0 | 10.0 | 0.00 | 0.00 | 0.00 | 13 | 912.9 |
| 20260503193544 | 86 | 220 | 3.0 | 10.0 | 0.00 | 0.00 | 0.00 | 13 | 912.9 |
| 20260503193437 | 86 | 167 | 3.0 | 10.0 | 0.00 | 0.00 | 0.00 | 13 | 913.1 |
| 20260503193335 | 86 | 130 | 3.0 | 10.0 | 0.00 | 0.00 | 0.00 | 13 | 913.1 |
| 20260503193229 | 86 | 126 | 4.0 | 10.0 | 0.00 | 0.00 | 0.00 | 13 | 913.1 |
| 20260503193123 | 86 | 146 | 4.0 | 10.0 | 0.00 | 0.00 | 0.00 | 13 | 913.2 |
| 20260503193019 | 86 | 105 | 4.0 | 10.0 | 0.00 | 0.00 | 0.00 | 13 | 913.2 |
| 20260503192917 | 86 | 163 | 4.0 | 10.0 | 0.00 | 0.00 | 0.00 | 13 | 913.3 |
| 20260503192811 | 86 | 144 | 4.0 | 10.0 | 0.00 | 0.00 | 0.00 | 13 | 913.3 |
| 20260503192708 | 86 | 177 | 4.0 | 10.0 | 0.00 | 0.00 | 0.00 | 13 | 913.3 |
| 20260503192606 | 86 | 125 | 4.0 | 10.0 | 0.00 | 0.00 | 0.00 | 12 | 913.4 |
| 20260503192504 | 86 | 158 | 4.0 | 10.0 | 0.00 | 0.00 | 0.00 | 12 | 913.4 |
| 20260503192358 | 87 | 138 | 4.0 | 10.0 | 0.00 | 0.00 | 0.00 | 12 | 913.4 |
| 20260503192252 | 87 | 136 | 4.0 | 10.0 | 0.00 | 0.00 | 0.00 | 12 | 913.4 |
| 20260503192147 | 87 | 180 | 4.0 | 10.0 | 0.00 | 0.00 | 0.00 | 12 | 913.4 |
| 20260503192042 | 87 | 124 | 3.0 | 10.0 | 0.00 | 0.00 | 0.00 | 12 | 913.4 |
| 20260503191936 | 87 | 150 | 3.0 | 9.0 | 0.00 | 0.00 | 0.00 | 12 | 913.4 |
| 20260503191830 | 87 | 146 | 3.0 | 12.0 | 0.00 | 0.00 | 0.00 | 12 | 913.4 |
| 20260503191724 | 87 | 106 | 3.0 | 12.0 | 0.00 | 0.00 | 0.00 | 13 | 913.3 |
| 20260503191617 | 87 | 137 | 3.0 | 12.0 | 0.00 | 0.00 | 0.00 | 13 | 913.3 |
| 20260503191516 | 87 | 105 | 3.0 | 12.0 | 0.00 | 0.00 | 0.00 | 13 | 913.3 |
| 20260503191152 | 87 | 161 | 4.0 | 12.0 | 0.00 | 0.00 | 0.00 | 12 | 913.5 |
| 20260503190826 | 87 | 157 | 4.0 | 15.0 | 0.00 | 0.00 | 0.00 | 13 | 913.5 |
| 20260503190719 | 87 | 121 | 4.0 | 15.0 | 0.00 | 0.00 | 0.00 | 12 | 913.5 |
| 20260503190617 | 87 | 124 | 4.0 | 15.0 | 0.00 | 0.00 | 0.00 | 13 | 913.5 |
| 20260503190511 | 87 | 88 | 4.0 | 15.0 | 0.00 | 0.00 | 0.00 | 13 | 913.5 |
| 20260503190407 | 86 | 137 | 4.0 | 15.0 | 0.00 | 0.00 | 0.00 | 12 | 913.5 |
| 20260503190303 | 86 | 164 | 4.0 | 15.0 | 0.00 | 0.00 | 0.00 | 12 | 913.5 |
| 20260503190200 | 86 | 159 | 4.0 | 15.0 | 0.00 | 0.00 | 0.00 | 13 | 913.5 |
| 20260503185618 | 86 | 138 | 6.0 | 15.0 | 0.00 | 0.00 | 0.00 | 13 | 913.6 |
| 20260503185255 | 86 | 187 | 6.0 | 15.0 | 0.00 | 0.00 | 0.00 | 13 | 913.6 |
| 20260503185153 | 86 | 136 | 6.0 | 15.0 | 0.00 | 0.00 | 0.00 | 13 | 913.6 |
| 20260503185051 | 85 | 169 | 5.0 | 15.0 | 0.00 | 0.00 | 0.00 | 13 | 913.7 |
| 20260503184944 | 85 | 138 | 5.0 | 15.0 | 0.00 | 0.00 | 0.00 | 13 | 913.7 |
| 20260503184837 | 85 | 186 | 4.0 | 13.0 | 0.00 | 0.00 | 0.00 | 13 | 913.7 |
| 20260503184730 | 85 | 126 | 4.0 | 11.0 | 0.00 | 0.00 | 0.00 | 13 | 913.8 |
| 20260503184624 | 85 | 170 | 4.0 | 10.0 | 0.00 | 0.00 | 0.00 | 13 | 913.9 |
| 20260503184519 | 85 | 144 | 4.0 | 12.0 | 0.00 | 0.00 | 0.00 | 13 | 913.7 |
| 20260503184417 | 85 | 147 | 3.0 | 12.0 | 0.00 | 0.00 | 0.00 | 13 | 913.8 |
| 20260503184311 | 85 | 200 | 3.0 | 12.0 | 0.00 | 0.00 | 0.00 | 14 | 913.7 |
| 20260503184205 | 85 | 140 | 2.0 | 12.0 | 0.00 | 0.00 | 0.00 | 14 | 913.7 |
| 20260503184101 | 85 | 103 | 2.0 | 12.0 | 0.00 | 0.00 | 0.00 | 14 | 913.7 |
| 20260503183957 | 85 | 248 | 2.0 | 12.0 | 0.00 | 0.00 | 0.00 | 14 | 913.8 |
| 20260503183854 | 85 | 91 | 2.0 | 12.0 | 0.00 | 0.00 | 0.00 | 14 | 913.8 |
| 20260503183750 | 85 | 136 | 2.0 | 12.0 | 0.00 | 0.00 | 0.00 | 13 | 913.9 |
| 20260503183649 | 85 | 132 | 2.0 | 12.0 | 0.00 | 0.00 | 0.00 | 13 | 913.8 |
| 20260503183544 | 85 | 153 | 2.0 | 12.0 | 0.00 | 0.00 | 0.00 | 13 | 913.9 |
| 20260503183442 | 85 | 135 | 3.0 | 12.0 | 0.00 | 0.00 | 0.00 | 13 | 913.9 |
| 20260503183335 | 85 | 154 | 3.0 | 12.0 | 0.00 | 0.00 | 0.00 | 13 | 913.9 |
| 20260503183008 | 85 | 75 | 3.0 | 12.0 | 0.00 | 0.00 | 0.00 | 13 | 914.0 |
| 20260503182642 | 85 | 114 | 3.0 | 12.0 | 0.00 | 0.00 | 0.00 | 14 | 914.0 |
| 20260503182536 | 85 | 166 | 3.0 | 9.0 | 0.00 | 0.00 | 0.00 | 14 | 914.0 |
| 20260503182434 | 84 | 136 | 3.0 | 9.0 | 0.00 | 0.00 | 0.00 | 13 | 914.1 |
| 20260503182331 | 84 | 124 | 3.0 | 9.0 | 0.00 | 0.00 | 0.00 | 13 | 914.1 |
| 20260503182224 | 84 | 148 | 3.0 | 9.0 | 0.00 | 0.00 | 0.00 | 13 | 914.1 |
| 20260503181637 | 84 | 181 | 2.0 | 9.0 | 0.00 | 0.00 | 0.00 | 14 | 914.2 |
| 20260503181536 | 84 | 198 | 2.0 | 9.0 | 0.00 | 0.00 | 0.00 | 14 | 914.2 |
| 20260503181432 | 83 | 159 | 2.0 | 9.0 | 0.00 | 0.00 | 0.00 | 14 | 914.2 |
| 20260503181327 | 83 | 130 | 2.0 | 9.0 | 0.00 | 0.00 | 0.00 | 14 | 914.2 |
| 20260503180739 | 82 | 196 | 1.0 | 4.0 | 0.00 | 0.00 | 0.00 | 15 | 914.3 |
| 20260503180637 | 82 | 209 | 1.0 | 4.0 | 0.00 | 0.00 | 0.00 | 14 | 914.3 |
| 20260503180530 | 82 | 180 | 1.0 | 4.0 | 0.00 | 0.00 | 0.00 | 14 | 914.4 |
| 20260503180423 | 82 | 167 | 1.0 | 4.0 | 0.00 | 0.00 | 0.00 | 14 | 914.4 |
| 20260503180058 | 82 | 142 | 2.0 | 5.0 | 0.00 | 0.00 | 0.00 | 14 | 914.5 |
| 20260503175736 | 82 | 157 | 2.0 | 5.0 | 0.00 | 0.00 | 0.00 | 14 | 914.6 |
| 20260503175629 | 82 | 144 | 2.0 | 5.0 | 0.00 | 0.00 | 0.00 | 14 | 914.6 |
| 20260503175527 | 82 | 182 | 2.0 | 5.0 | 0.00 | 0.00 | 0.00 | 14 | 914.6 |
| 20260503175424 | 82 | 171 | 2.0 | 5.0 | 0.00 | 0.00 | 0.00 | 14 | 914.6 |
| 20260503175322 | 82 | 183 | 2.0 | 6.0 | 0.00 | 0.00 | 0.00 | 14 | 914.6 |
| 20260503175220 | 82 | 184 | 2.0 | 6.0 | 0.00 | 0.00 | 0.00 | 14 | 914.6 |
| 20260503175113 | 82 | 198 | 2.0 | 6.0 | 0.00 | 0.00 | 0.00 | 14 | 914.6 |
| 20260503175006 | 82 | 167 | 2.0 | 6.0 | 0.00 | 0.00 | 0.00 | 14 | 914.7 |
| 20260503174641 | 82 | 181 | 2.0 | 6.0 | 0.00 | 0.00 | 0.00 | 14 | 914.6 |
| 20260503174538 | 82 | 169 | 2.0 | 6.0 | 0.00 | 0.00 | 0.00 | 14 | 914.6 |
| 20260503174431 | 82 | 171 | 2.0 | 6.0 | 0.00 | 0.00 | 0.00 | 14 | 914.6 |
| 20260503174329 | 82 | 166 | 2.0 | 8.0 | 0.00 | 0.00 | 0.00 | 14 | 914.6 |
| 20260503174224 | 82 | 152 | 2.0 | 8.0 | 0.00 | 0.00 | 0.00 | 14 | 914.7 |
| 20260503173857 | 82 | 140 | 2.0 | 8.0 | 0.00 | 0.00 | 0.00 | 14 | 914.7 |
| 20260503173752 | 82 | 164 | 2.0 | 8.0 | 0.00 | 0.00 | 0.00 | 14 | 914.7 |
| 20260503173431 | 82 | 151 | 2.0 | 8.0 | 0.00 | 0.00 | 0.00 | 14 | 914.8 |
| 20260503173106 | 81 | 180 | 2.0 | 8.0 | 0.00 | 0.00 | 0.00 | 15 | 914.9 |
| 20260503172959 | 81 | 147 | 1.0 | 8.0 | 0.00 | 0.00 | 0.00 | 15 | 914.9 |
| 20260503172853 | 81 | 180 | 1.0 | 8.0 | 0.00 | 0.00 | 0.00 | 14 | 914.9 |
| 20260503172749 | 81 | 198 | 1.0 | 8.0 | 0.00 | 0.00 | 0.00 | 15 | 914.9 |
| 20260503172644 | 81 | 196 | 1.0 | 8.0 | 0.00 | 0.00 | 0.00 | 15 | 914.9 |
| 20260503172542 | 81 | 180 | 1.0 | 8.0 | 0.00 | 0.00 | 0.00 | 14 | 914.9 |
| 20260503172433 | 81 | 140 | 1.0 | 8.0 | 0.00 | 0.00 | 0.00 | 15 | 914.9 |
| 20260503172326 | 81 | 142 | 1.0 | 4.0 | 0.00 | 0.00 | 0.00 | 15 | 915.0 |
| 20260503172218 | 81 | 167 | 1.0 | 4.0 | 0.00 | 0.00 | 0.00 | 14 | 914.9 |
| 20260503171855 | 80 | 152 | 1.0 | 6.0 | 0.00 | 0.00 | 0.00 | 14 | 915.1 |
| 20260503171752 | 80 | 148 | 1.0 | 6.0 | 0.00 | 0.00 | 0.00 | 14 | 915.0 |
| 20260503171647 | 80 | 148 | 1.0 | 6.0 | 0.00 | 0.00 | 0.00 | 14 | 915.1 |
| 20260503171542 | 80 | 175 | 2.0 | 6.0 | 0.00 | 0.00 | 0.00 | 14 | 915.1 |
| 20260503171440 | 81 | 195 | 2.0 | 6.0 | 0.00 | 0.00 | 0.00 | 14 | 915.1 |
| 20260503171337 | 81 | 157 | 2.0 | 6.0 | 0.00 | 0.00 | 0.00 | 13 | 915.1 |
| 20260503171015 | 81 | 210 | 2.0 | 6.0 | 0.00 | 0.00 | 0.00 | 13 | 915.1 |
| 20260503170907 | 81 | 172 | 2.0 | 6.0 | 0.00 | 0.00 | 0.00 | 13 | 915.1 |
| 20260503170804 | 81 | 198 | 2.0 | 6.0 | 0.00 | 0.00 | 0.00 | 13 | 915.1 |
| 20260503170657 | 81 | 210 | 2.0 | 6.0 | 0.00 | 0.00 | 0.00 | 13 | 915.0 |
| 20260503170550 | 81 | 169 | 2.0 | 6.0 | 0.00 | 0.00 | 0.00 | 13 | 915.0 |
| 20260503170448 | 81 | 168 | 2.0 | 6.0 | 0.00 | 0.00 | 0.00 | 13 | 915.0 |
| 20260503170344 | 81 | 153 | 2.0 | 6.0 | 0.00 | 0.00 | 0.00 | 12 | 915.1 |
| 20260503150956 | 70 | 260 | 0.0 | 1.0 | 0.00 | 0.00 | 0.00 | 17 | 915.9 |
| 20260503150853 | 70 | 259 | 0.0 | 1.0 | 0.00 | 0.00 | 0.00 | 17 | 915.9 |
| 20260503150747 | 70 | 259 | 0.0 | 1.0 | 0.00 | 0.00 | 0.00 | 17 | 915.9 |
| 20260503150643 | 69 | 273 | 0.0 | 1.0 | 0.00 | 0.00 | 0.00 | 17 | 915.9 |
| 20260503150537 | 69 | 273 | 0.0 | 1.0 | 0.00 | 0.00 | 0.00 | 17 | 915.9 |
| 20260503150210 | 69 | 266 | 0.0 | 1.0 | 0.00 | 0.00 | 0.00 | 17 | 916.0 |
| 20260503150106 | 69 | 241 | 0.0 | 1.0 | 0.00 | 0.00 | 0.00 | 17 | 916.0 |
| 20260503140217 | 64 | 42 | 1.0 | 0.0 | 0.00 | 0.00 | 0.00 | 18 | 915.8 |
| 20260503140115 | 64 | 42 | 1.0 | 3.0 | 0.00 | 0.00 | 0.00 | 18 | 915.8 |
| 20260503131218 | 59 | 9 | 0.0 | 1.0 | 0.00 | 0.00 | 0.00 | 17 | 915.8 |
| 20260503131116 | 59 | 9 | 0.0 | 1.0 | 0.00 | 0.00 | 0.00 | 18 | 915.7 |
| 20260503131012 | 59 | 9 | 0.0 | 1.0 | 0.00 | 0.00 | 0.00 | 17 | 915.7 |
| 20260503130905 | 59 | 9 | 0.0 | 1.0 | 0.00 | 0.00 | 0.00 | 17 | 915.7 |
| 20260503130759 | 59 | 17 | 0.0 | 0.0 | 0.00 | 0.00 | 0.00 | 17 | 915.7 |
| 20260503130653 | 59 | 25 | 0.0 | 0.0 | 0.00 | 0.00 | 0.00 | 17 | 915.8 |
| 20260503130549 | 59 | 25 | 0.0 | 0.0 | 0.00 | 0.00 | 0.00 | 17 | 915.7 |
| 20260503130445 | 59 | 25 | 0.0 | 2.0 | 0.00 | 0.00 | 0.00 | 17 | 915.6 |
| 20260503130339 | 59 | 25 | 0.0 | 2.0 | 0.00 | 0.00 | 0.00 | 17 | 915.6 |
| 20260503130235 | 59 | 25 | 0.0 | 2.0 | 0.00 | 0.00 | 0.00 | 17 | 915.6 |
| 20260503130132 | 59 | 25 | 0.0 | 0.0 | 0.00 | 0.00 | 0.00 | 17 | 915.6 |
| 20260503120155 | 59 | 302 | 0.0 | 1.0 | 0.00 | 0.00 | 0.00 | 16 | 915.0 |
| 20260503110828 | 61 | 302 | 0.0 | 0.0 | 0.00 | 0.00 | 0.00 | 16 | 915.3 |
| 20260503110509 | 62 | 302 | 0.0 | 1.0 | 0.00 | 0.00 | 0.00 | 16 | 915.2 |
| 20260503110405 | 62 | 301 | 0.0 | 1.0 | 0.00 | 0.00 | 0.00 | 16 | 915.2 |
| 20260503110302 | 62 | 257 | 0.0 | 0.0 | 0.00 | 0.00 | 0.00 | 16 | 915.2 |
| 20260503110158 | 62 | 257 | 0.0 | 2.0 | 0.00 | 0.00 | 0.00 | 16 | 915.2 |
| 20260503100259 | 64 | 254 | 0.0 | 0.0 | 0.00 | 0.00 | 0.00 | 14 | 915.5 |
| 20260503100155 | 64 | 254 | 0.0 | 3.0 | 0.00 | 0.00 | 0.00 | 14 | 915.4 |
| 20260503090507 | 63 | 327 | 0.0 | 1.0 | 0.00 | 0.00 | 0.00 | 14 | 915.6 |
| 20260503090405 | 63 | 327 | 0.0 | 1.0 | 0.00 | 0.00 | 0.00 | 14 | 915.7 |
| 20260503090303 | 63 | 326 | 0.0 | 2.0 | 0.00 | 0.00 | 0.00 | 14 | 915.8 |
| 20260503090158 | 63 | 326 | 0.0 | 2.0 | 0.00 | 0.00 | 0.00 | 14 | 915.7 |
| 20260503081344 | 65 | 63 | 0.0 | 2.0 | 0.00 | 0.00 | 0.00 | 13 | 915.8 |
| 20260503081238 | 65 | 63 | 0.0 | 2.0 | 0.00 | 0.00 | 0.00 | 13 | 915.9 |
| 20260503081133 | 65 | 62 | 0.0 | 2.0 | 0.00 | 0.00 | 0.00 | 13 | 915.8 |
| 20260503081026 | 65 | 61 | 0.0 | 2.0 | 0.00 | 0.00 | 0.00 | 13 | 915.8 |
| 20260503080922 | 65 | 61 | 0.0 | 2.0 | 0.00 | 0.00 | 0.00 | 13 | 915.9 |
| 20260503080818 | 65 | 61 | 0.0 | 2.0 | 0.00 | 0.00 | 0.00 | 13 | 915.9 |
| 20260503080448 | 65 | 59 | 0.0 | 2.0 | 0.00 | 0.00 | 0.00 | 13 | 915.9 |
| 20260503080342 | 65 | 62 | 0.0 | 2.0 | 0.00 | 0.00 | 0.00 | 13 | 915.9 |
| 20260503080239 | 65 | 66 | 0.0 | 2.0 | 0.00 | 0.00 | 0.00 | 13 | 916.0 |
| 20260503072858 | 65 | 0 | 0.0 | 1.0 | 0.00 | 0.00 | 0.00 | 14 | 916.1 |
| 20260503072754 | 65 | 0 | 0.0 | 1.0 | 0.00 | 0.00 | 0.00 | 14 | 916.2 |
| 20260503072651 | 65 | 0 | 0.0 | 1.0 | 0.00 | 0.00 | 0.00 | 14 | 916.2 |
| 20260503072546 | 65 | 0 | 0.0 | 1.0 | 0.00 | 0.00 | 0.00 | 14 | 916.1 |
| 20260503072442 | 65 | 321 | 0.0 | 1.0 | 0.00 | 0.00 | 0.00 | 14 | 916.2 |
| 20260503072337 | 65 | 314 | 0.0 | 1.0 | 0.00 | 0.00 | 0.00 | 14 | 916.2 |
| 20260503072234 | 65 | 314 | 0.0 | 1.0 | 0.00 | 0.00 | 0.00 | 14 | 916.1 |
| 20260503072129 | 65 | 314 | 0.0 | 1.0 | 0.00 | 0.00 | 0.00 | 14 | 916.2 |
| 20260503072022 | 65 | 314 | 0.0 | 1.0 | 0.00 | 0.00 | 0.00 | 14 | 916.1 |
| 20260503071915 | 65 | 314 | 0.0 | 1.0 | 0.00 | 0.00 | 0.00 | 14 | 916.2 |
| 20260503071807 | 65 | 314 | 0.0 | 1.0 | 0.00 | 0.00 | 0.00 | 14 | 916.1 |
| 20260503071439 | 65 | 314 | 0.0 | 1.0 | 0.00 | 0.00 | 0.00 | 13 | 916.2 |
| 20260503071334 | 65 | 314 | 0.0 | 1.0 | 0.00 | 0.00 | 0.00 | 13 | 916.2 |
| 20260503071229 | 65 | 314 | 0.0 | 1.0 | 0.00 | 0.00 | 0.00 | 13 | 916.1 |
| 20260503071127 | 65 | 314 | 0.0 | 1.0 | 0.00 | 0.00 | 0.00 | 13 | 916.1 |
| 20260503071022 | 65 | 313 | 0.0 | 1.0 | 0.00 | 0.00 | 0.00 | 13 | 916.2 |
| 20260503070918 | 65 | 302 | 0.0 | 1.0 | 0.00 | 0.00 | 0.00 | 13 | 916.1 |
| 20260503070812 | 65 | 300 | 0.0 | 0.0 | 0.00 | 0.00 | 0.00 | 13 | 916.2 |
| 20260503070709 | 65 | 300 | 0.0 | 0.0 | 0.00 | 0.00 | 0.00 | 13 | 916.2 |
| 20260503070604 | 65 | 300 | 0.0 | 1.0 | 0.00 | 0.00 | 0.00 | 14 | 916.2 |
| 20260503070235 | 66 | 302 | 0.0 | 1.0 | 0.00 | 0.00 | 0.00 | 13 | 916.2 |
| 20260503070129 | 66 | 302 | 0.0 | 1.0 | 0.00 | 0.00 | 0.00 | 13 | 916.2 |
| 20260503060313 | 69 | 276 | 0.0 | 2.0 | 0.00 | 0.00 | 0.00 | 13 | 916.3 |
| 20260503060210 | 69 | 275 | 0.0 | 2.0 | 0.00 | 0.00 | 0.00 | 13 | 916.3 |
| 20260503060104 | 69 | 355 | 0.0 | 2.0 | 0.00 | 0.00 | 0.00 | 13 | 916.3 |
| 20260503055123 | 71 | 17 | 0.0 | 3.0 | 0.00 | 0.00 | 0.00 | 12 | 916.2 |
| 20260503055017 | 71 | 308 | 0.0 | 3.0 | 0.00 | 0.00 | 0.00 | 11 | 916.2 |
| 20260503054914 | 71 | 299 | 0.0 | 3.0 | 0.00 | 0.00 | 0.00 | 11 | 916.2 |
| 20260503054809 | 71 | 299 | 0.0 | 3.0 | 0.00 | 0.00 | 0.00 | 11 | 916.3 |
| 20260503054706 | 71 | 299 | 0.0 | 3.0 | 0.00 | 0.00 | 0.00 | 11 | 916.3 |
| 20260503054602 | 72 | 298 | 0.0 | 3.0 | 0.00 | 0.00 | 0.00 | 11 | 916.3 |
| 20260503054457 | 72 | 285 | 0.0 | 3.0 | 0.00 | 0.00 | 0.00 | 11 | 916.3 |
| 20260503054132 | 72 | 247 | 0.0 | 3.0 | 0.00 | 0.00 | 0.00 | 11 | 916.3 |
| 20260503054030 | 73 | 247 | 0.0 | 3.0 | 0.00 | 0.00 | 0.00 | 11 | 916.3 |
| 20260503053926 | 73 | 250 | 0.0 | 3.0 | 0.00 | 0.00 | 0.00 | 11 | 916.3 |
| 20260503053558 | 73 | 207 | 0.0 | 0.0 | 0.00 | 0.00 | 0.00 | 11 | 916.3 |
| 20260503053454 | 73 | 207 | 0.0 | 0.0 | 0.00 | 0.00 | 0.00 | 11 | 916.3 |
| 20260503053350 | 73 | 207 | 0.0 | 0.0 | 0.00 | 0.00 | 0.00 | 11 | 916.3 |
| 20260503053246 | 74 | 189 | 0.0 | 0.0 | 0.00 | 0.00 | 0.00 | 11 | 916.3 |
| 20260503053140 | 74 | 189 | 0.0 | 0.0 | 0.00 | 0.00 | 0.00 | 11 | 916.3 |
| 20260503053035 | 74 | 189 | 0.0 | 0.0 | 0.00 | 0.00 | 0.00 | 11 | 916.3 |
| 20260503052930 | 74 | 189 | 0.0 | 0.0 | 0.00 | 0.00 | 0.00 | 11 | 916.2 |
| 20260503052827 | 74 | 189 | 0.0 | 0.0 | 0.00 | 0.00 | 0.00 | 11 | 916.2 |
| 20260503052724 | 74 | 189 | 0.0 | 3.0 | 0.00 | 0.00 | 0.00 | 11 | 916.2 |
| 20260503052359 | 74 | 183 | 0.0 | 3.0 | 0.00 | 0.00 | 0.00 | 10 | 916.3 |
| 20260503052038 | 75 | 108 | 0.0 | 5.0 | 0.00 | 0.00 | 0.00 | 10 | 916.2 |
| 20260503051933 | 75 | 84 | 0.0 | 5.0 | 0.00 | 0.00 | 0.00 | 9 | 916.3 |
| 20260503051831 | 75 | 67 | 0.0 | 5.0 | 0.00 | 0.00 | 0.00 | 9 | 916.2 |
| 20260503051723 | 75 | 58 | 1.0 | 5.0 | 0.00 | 0.00 | 0.00 | 9 | 916.2 |
| 20260503051620 | 75 | 59 | 1.0 | 5.0 | 0.00 | 0.00 | 0.00 | 9 | 916.2 |
| 20260503051514 | 75 | 58 | 1.0 | 5.0 | 0.00 | 0.00 | 0.00 | 9 | 916.2 |
| 20260503051409 | 75 | 82 | 1.0 | 5.0 | 0.00 | 0.00 | 0.00 | 9 | 916.2 |
| 20260503051302 | 75 | 84 | 2.0 | 5.0 | 0.00 | 0.00 | 0.00 | 9 | 916.2 |
| 20260503051200 | 75 | 80 | 2.0 | 5.0 | 0.00 | 0.00 | 0.00 | 9 | 916.2 |
| 20260503050835 | 75 | 64 | 2.0 | 5.0 | 0.00 | 0.00 | 0.00 | 9 | 916.1 |
| 20260503050509 | 75 | 55 | 2.0 | 5.0 | 0.00 | 0.00 | 0.00 | 9 | 916.1 |
| 20260503050403 | 75 | 54 | 2.0 | 5.0 | 0.00 | 0.00 | 0.00 | 9 | 916.0 |
| 20260503050300 | 75 | 48 | 2.0 | 4.0 | 0.00 | 0.00 | 0.00 | 9 | 916.1 |
| 20260503045939 | 75 | 49 | 2.0 | 4.0 | 0.00 | 0.00 | 0.00 | 9 | 916.1 |
| 20260503045832 | 75 | 51 | 2.0 | 4.0 | 0.00 | 0.00 | 0.00 | 9 | 916.1 |
| 20260503045726 | 75 | 49 | 2.0 | 4.0 | 0.00 | 0.00 | 0.00 | 9 | 916.1 |
| 20260503045620 | 75 | 63 | 1.0 | 4.0 | 0.00 | 0.00 | 0.00 | 9 | 916.1 |
| 20260503044818 | 75 | 55 | 2.0 | 4.0 | 0.00 | 0.00 | 0.00 | 10 | 916.0 |
| 20260503044712 | 75 | 80 | 1.0 | 4.0 | 0.00 | 0.00 | 0.00 | 10 | 916.0 |
| 20260503044606 | 75 | 56 | 1.0 | 4.0 | 0.00 | 0.00 | 0.00 | 10 | 916.0 |
| 20260503044500 | 75 | 53 | 1.0 | 4.0 | 0.00 | 0.00 | 0.00 | 10 | 916.0 |
| 20260503044356 | 75 | 55 | 1.0 | 4.0 | 0.00 | 0.00 | 0.00 | 10 | 916.0 |
| 20260503044252 | 75 | 48 | 1.0 | 4.0 | 0.00 | 0.00 | 0.00 | 10 | 916.0 |
| 20260503043929 | 75 | 42 | 1.0 | 4.0 | 0.00 | 0.00 | 0.00 | 10 | 915.9 |
| 20260503043822 | 75 | 77 | 1.0 | 4.0 | 0.00 | 0.00 | 0.00 | 10 | 916.0 |
| 20260503043713 | 75 | 54 | 1.0 | 4.0 | 0.00 | 0.00 | 0.00 | 10 | 916.0 |
| 20260503043348 | 75 | 46 | 2.0 | 4.0 | 0.00 | 0.00 | 0.00 | 10 | 916.0 |
| 20260503043243 | 75 | 54 | 2.0 | 4.0 | 0.00 | 0.00 | 0.00 | 10 | 916.0 |
| 20260503043137 | 75 | 65 | 2.0 | 4.0 | 0.00 | 0.00 | 0.00 | 10 | 916.1 |
| 20260503043029 | 75 | 71 | 2.0 | 4.0 | 0.00 | 0.00 | 0.00 | 10 | 916.0 |
| 20260503042923 | 75 | 50 | 2.0 | 4.0 | 0.00 | 0.00 | 0.00 | 10 | 916.0 |
| 20260503042818 | 75 | 62 | 2.0 | 4.0 | 0.00 | 0.00 | 0.00 | 10 | 916.0 |
| 20260503042712 | 75 | 43 | 2.0 | 4.0 | 0.00 | 0.00 | 0.00 | 10 | 916.0 |
| 20260503042607 | 75 | 34 | 2.0 | 4.0 | 0.00 | 0.00 | 0.00 | 10 | 916.0 |
| 20260503042502 | 75 | 63 | 2.0 | 4.0 | 0.00 | 0.00 | 0.00 | 10 | 915.9 |
| 20260503041700 | 75 | 93 | 1.0 | 2.0 | 0.00 | 0.00 | 0.00 | 10 | 916.0 |
| 20260503041555 | 75 | 49 | 1.0 | 2.0 | 0.00 | 0.00 | 0.00 | 10 | 915.9 |
| 20260503041452 | 75 | 44 | 1.0 | 2.0 | 0.00 | 0.00 | 0.00 | 10 | 916.0 |
| 20260503041348 | 75 | 45 | 1.0 | 2.0 | 0.00 | 0.00 | 0.00 | 10 | 916.0 |
| 20260503041240 | 75 | 50 | 1.0 | 2.0 | 0.00 | 0.00 | 0.00 | 10 | 915.9 |
| 20260503040657 | 75 | 48 | 1.0 | 2.0 | 0.00 | 0.00 | 0.00 | 10 | 915.8 |
| 20260503040331 | 75 | 48 | 1.0 | 2.0 | 0.00 | 0.00 | 0.00 | 10 | 915.8 |
| 20260503035742 | 75 | 51 | 1.0 | 2.0 | 0.00 | 0.00 | 0.00 | 10 | 915.8 |
| 20260503035640 | 75 | 42 | 1.0 | 2.0 | 0.00 | 0.00 | 0.00 | 10 | 915.8 |
| 20260503035313 | 75 | 58 | 1.0 | 2.0 | 0.00 | 0.00 | 0.00 | 10 | 915.8 |
| 20260503035206 | 75 | 59 | 1.0 | 2.0 | 0.00 | 0.00 | 0.00 | 10 | 915.8 |
| 20260503035059 | 75 | 69 | 1.0 | 2.0 | 0.00 | 0.00 | 0.00 | 10 | 915.8 |
| 20260503034952 | 75 | 74 | 1.0 | 2.0 | 0.00 | 0.00 | 0.00 | 10 | 915.8 |
| 20260503034848 | 75 | 52 | 1.0 | 2.0 | 0.00 | 0.00 | 0.00 | 10 | 915.7 |
| 20260503034741 | 75 | 50 | 1.0 | 2.0 | 0.00 | 0.00 | 0.00 | 10 | 915.7 |
| 20260503034637 | 76 | 40 | 0.0 | 2.0 | 0.00 | 0.00 | 0.00 | 10 | 915.7 |
| 20260503034532 | 76 | 37 | 0.0 | 2.0 | 0.00 | 0.00 | 0.00 | 10 | 915.7 |
| 20260503034430 | 76 | 37 | 0.0 | 2.0 | 0.00 | 0.00 | 0.00 | 10 | 915.7 |
| 20260503034325 | 76 | 44 | 0.0 | 2.0 | 0.00 | 0.00 | 0.00 | 10 | 915.6 |
| 20260503034219 | 76 | 42 | 0.0 | 2.0 | 0.00 | 0.00 | 0.00 | 10 | 915.6 |
| 20260503034114 | 76 | 42 | 0.0 | 2.0 | 0.00 | 0.00 | 0.00 | 10 | 915.6 |
| 20260503033751 | 76 | 58 | 0.0 | 1.0 | 0.00 | 0.00 | 0.00 | 10 | 915.5 |
| 20260503033647 | 76 | 46 | 0.0 | 1.0 | 0.00 | 0.00 | 0.00 | 10 | 915.6 |
| 20260503033540 | 76 | 40 | 0.0 | 1.0 | 0.00 | 0.00 | 0.00 | 10 | 915.5 |
| 20260503033437 | 76 | 40 | 0.0 | 1.0 | 0.00 | 0.00 | 0.00 | 10 | 915.5 |
| 20260503033110 | 76 | 40 | 0.0 | 1.0 | 0.00 | 0.00 | 0.00 | 10 | 915.5 |
| 20260503032747 | 76 | 44 | 0.0 | 1.0 | 0.00 | 0.00 | 0.00 | 10 | 915.5 |
| 20260503032644 | 76 | 43 | 0.0 | 1.0 | 0.00 | 0.00 | 0.00 | 10 | 915.4 |
| 20260503032542 | 77 | 44 | 0.0 | 1.0 | 0.00 | 0.00 | 0.00 | 10 | 915.4 |
| 20260503032435 | 77 | 47 | 0.0 | 1.0 | 0.00 | 0.00 | 0.00 | 10 | 915.4 |
| 20260503032331 | 77 | 42 | 0.0 | 1.0 | 0.00 | 0.00 | 0.00 | 10 | 915.4 |
| 20260503032228 | 77 | 46 | 0.0 | 1.0 | 0.00 | 0.00 | 0.00 | 10 | 915.3 |
| 20260503032122 | 77 | 51 | 0.0 | 1.0 | 0.00 | 0.00 | 0.00 | 10 | 915.4 |
| 20260503032017 | 77 | 42 | 0.0 | 1.0 | 0.00 | 0.00 | 0.00 | 10 | 915.4 |
| 20260503031914 | 77 | 42 | 0.0 | 1.0 | 0.00 | 0.00 | 0.00 | 10 | 915.4 |
| 20260503031328 | 77 | 51 | 0.0 | 1.0 | 0.00 | 0.00 | 0.00 | 10 | 915.3 |
| 20260503031222 | 77 | 52 | 0.0 | 1.0 | 0.00 | 0.00 | 0.00 | 10 | 915.3 |
| 20260503031120 | 77 | 60 | 0.0 | 1.0 | 0.00 | 0.00 | 0.00 | 10 | 915.3 |
| 20260503030756 | 78 | 57 | 0.0 | 1.0 | 0.00 | 0.00 | 0.00 | 10 | 915.3 |
| 20260503030652 | 78 | 59 | 0.0 | 1.0 | 0.00 | 0.00 | 0.00 | 10 | 915.3 |
| 20260503030324 | 78 | 69 | 0.0 | 1.0 | 0.00 | 0.00 | 0.00 | 10 | 915.3 |
| 20260503030222 | 78 | 69 | 0.0 | 1.0 | 0.00 | 0.00 | 0.00 | 10 | 915.3 |
| 20260503030119 | 78 | 69 | 0.0 | 1.0 | 0.00 | 0.00 | 0.00 | 10 | 915.3 |
| 20260503030013 | 78 | 69 | 0.0 | 1.0 | 0.00 | 0.00 | 0.00 | 9 | 915.3 |
| 20260503025907 | 78 | 78 | 0.0 | 1.0 | 0.00 | 0.00 | 0.00 | 9 | 915.3 |
| 20260503025801 | 78 | 78 | 0.0 | 1.0 | 0.00 | 0.00 | 0.00 | 9 | 915.3 |
| 20260503025656 | 78 | 78 | 0.0 | 1.0 | 0.00 | 0.00 | 0.00 | 9 | 915.3 |
| 20260503025552 | 78 | 78 | 0.0 | 1.0 | 0.00 | 0.00 | 0.00 | 9 | 915.2 |
| 20260503025443 | 79 | 78 | 0.0 | 1.0 | 0.00 | 0.00 | 0.00 | 9 | 915.2 |
| 20260503025116 | 79 | 78 | 0.0 | 1.0 | 0.00 | 0.00 | 0.00 | 9 | 915.2 |
| 20260503025011 | 79 | 78 | 0.0 | 1.0 | 0.00 | 0.00 | 0.00 | 9 | 915.2 |
| 20260503024907 | 79 | 78 | 0.0 | 1.0 | 0.00 | 0.00 | 0.00 | 9 | 915.2 |
| 20260503024801 | 79 | 78 | 0.0 | 1.0 | 0.00 | 0.00 | 0.00 | 9 | 915.1 |
| 20260503024657 | 79 | 78 | 0.0 | 1.0 | 0.00 | 0.00 | 0.00 | 9 | 915.1 |
| 20260503024555 | 79 | 78 | 0.0 | 1.0 | 0.00 | 0.00 | 0.00 | 9 | 915.1 |
| 20260503024453 | 79 | 78 | 0.0 | 1.0 | 0.00 | 0.00 | 0.00 | 9 | 915.1 |
| 20260503024348 | 80 | 78 | 0.0 | 1.0 | 0.00 | 0.00 | 0.00 | 9 | 915.1 |
| 20260503024244 | 80 | 78 | 0.0 | 1.0 | 0.00 | 0.00 | 0.00 | 9 | 915.1 |
| 20260503024140 | 80 | 78 | 0.0 | 1.0 | 0.00 | 0.00 | 0.00 | 9 | 915.1 |
| 20260503024037 | 80 | 78 | 0.0 | 1.0 | 0.00 | 0.00 | 0.00 | 9 | 915.1 |
| 20260503023932 | 80 | 78 | 0.0 | 1.0 | 0.00 | 0.00 | 0.00 | 9 | 915.1 |
| 20260503023827 | 80 | 78 | 0.0 | 1.0 | 0.00 | 0.00 | 0.00 | 8 | 915.1 |
| 20260503023721 | 80 | 78 | 0.0 | 1.0 | 0.00 | 0.00 | 0.00 | 8 | 915.1 |
| 20260503023618 | 80 | 78 | 0.0 | 1.0 | 0.00 | 0.00 | 0.00 | 8 | 915.0 |
| 20260503023514 | 81 | 78 | 0.0 | 1.0 | 0.00 | 0.00 | 0.00 | 8 | 915.1 |
| 20260503023410 | 81 | 78 | 0.0 | 1.0 | 0.00 | 0.00 | 0.00 | 8 | 915.1 |
| 20260503023304 | 81 | 78 | 0.0 | 1.0 | 0.00 | 0.00 | 0.00 | 8 | 915.1 |
| 20260503023202 | 81 | 78 | 0.0 | 1.0 | 0.00 | 0.00 | 0.00 | 8 | 915.1 |
| 20260503023059 | 81 | 113 | 0.0 | 0.0 | 0.00 | 0.00 | 0.00 | 8 | 915.1 |
| 20260503022735 | 82 | 149 | 0.0 | 0.0 | 0.00 | 0.00 | 0.00 | 8 | 915.1 |
| 20260503022631 | 82 | 149 | 0.0 | 0.0 | 0.00 | 0.00 | 0.00 | 8 | 915.0 |
| 20260503022525 | 82 | 149 | 0.0 | 0.0 | 0.00 | 0.00 | 0.00 | 8 | 915.0 |
| 20260503022422 | 82 | 149 | 0.0 | 0.0 | 0.00 | 0.00 | 0.00 | 8 | 915.0 |
| 20260503022320 | 82 | 149 | 0.0 | 0.0 | 0.00 | 0.00 | 0.00 | 8 | 915.0 |
| 20260503022217 | 82 | 149 | 0.0 | 0.0 | 0.00 | 0.00 | 0.00 | 8 | 915.0 |
| 20260503022113 | 82 | 149 | 0.0 | 0.0 | 0.00 | 0.00 | 0.00 | 8 | 915.1 |
| 20260503022010 | 82 | 149 | 0.0 | 0.0 | 0.00 | 0.00 | 0.00 | 8 | 915.0 |
| 20260503021905 | 82 | 149 | 0.0 | 0.0 | 0.00 | 0.00 | 0.00 | 8 | 915.1 |
| 20260503021801 | 82 | 149 | 0.0 | 0.0 | 0.00 | 0.00 | 0.00 | 8 | 915.0 |
| 20260503021653 | 82 | 149 | 0.0 | 0.0 | 0.00 | 0.00 | 0.00 | 8 | 915.1 |
| 20260503021550 | 82 | 149 | 0.0 | 0.0 | 0.00 | 0.00 | 0.00 | 8 | 915.0 |
| 20260503021448 | 82 | 149 | 0.0 | 0.0 | 0.00 | 0.00 | 0.00 | 8 | 915.0 |
| 20260503021341 | 83 | 149 | 0.0 | 0.0 | 0.00 | 0.00 | 0.00 | 8 | 915.0 |
| 20260503021236 | 83 | 149 | 0.0 | 0.0 | 0.00 | 0.00 | 0.00 | 8 | 915.1 |
| 20260503021131 | 83 | 149 | 0.0 | 0.0 | 0.00 | 0.00 | 0.00 | 8 | 915.0 |
| 20260503021025 | 83 | 149 | 0.0 | 0.0 | 0.00 | 0.00 | 0.00 | 8 | 915.0 |
| 20260503020919 | 83 | 149 | 0.0 | 0.0 | 0.00 | 0.00 | 0.00 | 8 | 915.0 |
| 20260503020550 | 83 | 149 | 0.0 | 0.0 | 0.00 | 0.00 | 0.00 | 8 | 915.1 |
| 20260503020227 | 83 | 149 | 0.0 | 0.0 | 0.00 | 0.00 | 0.00 | 8 | 915.1 |
| 20260503020124 | 83 | 149 | 0.0 | 1.0 | 0.00 | 0.00 | 0.00 | 8 | 915.1 |
| 20260503020021 | 83 | 149 | 0.0 | 1.0 | 0.00 | 0.00 | 0.00 | 8 | 915.1 |
| 20260503015914 | 83 | 149 | 0.0 | 1.0 | 0.00 | 0.00 | 0.00 | 8 | 915.1 |
| 20260503015810 | 83 | 149 | 0.0 | 1.0 | 0.00 | 0.00 | 0.00 | 8 | 915.1 |
| 20260503015442 | 84 | 149 | 0.0 | 0.0 | 0.00 | 0.00 | 0.00 | 7 | 915.1 |
| 20260503015335 | 84 | 149 | 0.0 | 0.0 | 0.00 | 0.00 | 0.00 | 7 | 915.1 |
| 20260503015232 | 84 | 149 | 0.0 | 0.0 | 0.00 | 0.00 | 0.00 | 7 | 915.0 |
| 20260503015128 | 84 | 149 | 0.0 | 3.0 | 0.00 | 0.00 | 0.00 | 7 | 915.1 |
| 20260503014545 | 84 | 149 | 0.0 | 4.0 | 0.00 | 0.00 | 0.00 | 7 | 915.1 |
| 20260503014440 | 84 | 134 | 0.0 | 4.0 | 0.00 | 0.00 | 0.00 | 7 | 915.0 |
| 20260503014117 | 84 | 96 | 0.0 | 4.0 | 0.00 | 0.00 | 0.00 | 7 | 915.1 |
| 20260503014013 | 84 | 94 | 0.0 | 4.0 | 0.00 | 0.00 | 0.00 | 7 | 915.1 |
| 20260503013650 | 85 | 140 | 1.0 | 4.0 | 0.00 | 0.00 | 0.00 | 7 | 915.1 |
| 20260503013547 | 85 | 150 | 1.0 | 4.0 | 0.00 | 0.00 | 0.00 | 7 | 915.1 |
| 20260503013443 | 85 | 140 | 1.0 | 4.0 | 0.00 | 0.00 | 0.00 | 7 | 915.1 |
| 20260503013338 | 85 | 165 | 1.0 | 4.0 | 0.00 | 0.00 | 0.00 | 7 | 915.1 |
| 20260503013236 | 85 | 165 | 1.0 | 4.0 | 0.00 | 0.00 | 0.00 | 7 | 915.1 |
| 20260503013131 | 85 | 155 | 1.0 | 4.0 | 0.00 | 0.00 | 0.00 | 7 | 915.1 |
| 20260503013025 | 85 | 152 | 1.0 | 4.0 | 0.00 | 0.00 | 0.00 | 7 | 915.1 |
| 20260503012921 | 85 | 136 | 1.0 | 4.0 | 0.00 | 0.00 | 0.00 | 7 | 915.1 |
| 20260503012816 | 85 | 134 | 1.0 | 4.0 | 0.00 | 0.00 | 0.00 | 7 | 915.1 |
| 20260503012449 | 86 | 142 | 0.0 | 3.0 | 0.00 | 0.00 | 0.00 | 7 | 915.1 |
| 20260503012345 | 86 | 150 | 0.0 | 3.0 | 0.00 | 0.00 | 0.00 | 7 | 915.2 |
| 20260503012239 | 86 | 159 | 0.0 | 3.0 | 0.00 | 0.00 | 0.00 | 7 | 915.2 |
| 20260503012133 | 86 | 161 | 0.0 | 3.0 | 0.00 | 0.00 | 0.00 | 7 | 915.1 |
| 20260503012026 | 86 | 154 | 0.0 | 3.0 | 0.00 | 0.00 | 0.00 | 7 | 915.2 |
| 20260503011920 | 86 | 153 | 0.0 | 5.0 | 0.00 | 0.00 | 0.00 | 7 | 915.2 |
| 20260503011817 | 86 | 157 | 0.0 | 5.0 | 0.00 | 0.00 | 0.00 | 7 | 915.2 |
| 20260503011713 | 86 | 157 | 0.0 | 5.0 | 0.00 | 0.00 | 0.00 | 7 | 915.2 |
| 20260503011607 | 86 | 173 | 0.0 | 5.0 | 0.00 | 0.00 | 0.00 | 7 | 915.1 |
| 20260503011504 | 86 | 173 | 1.0 | 5.0 | 0.00 | 0.00 | 0.00 | 7 | 915.1 |
| 20260503011357 | 86 | 171 | 1.0 | 5.0 | 0.00 | 0.00 | 0.00 | 7 | 915.2 |
| 20260503011255 | 86 | 200 | 1.0 | 5.0 | 0.00 | 0.00 | 0.00 | 7 | 915.2 |
| 20260503011150 | 86 | 182 | 1.0 | 5.0 | 0.00 | 0.00 | 0.00 | 7 | 915.2 |
| 20260503011042 | 86 | 186 | 1.0 | 5.0 | 0.00 | 0.00 | 0.00 | 7 | 915.2 |
| 20260503010938 | 86 | 95 | 1.0 | 5.0 | 0.00 | 0.00 | 0.00 | 7 | 915.2 |
| 20260503010834 | 86 | 40 | 1.0 | 5.0 | 0.00 | 0.00 | 0.00 | 7 | 915.2 |
| 20260503005551 | 86 | 139 | 2.0 | 5.0 | 0.00 | 0.00 | 0.00 | 7 | 915.3 |
| 20260503005226 | 86 | 180 | 1.0 | 5.0 | 0.00 | 0.00 | 0.00 | 7 | 915.3 |
| 20260503005123 | 86 | 180 | 1.0 | 5.0 | 0.00 | 0.00 | 0.00 | 7 | 915.3 |
| 20260503005021 | 86 | 180 | 2.0 | 5.0 | 0.00 | 0.00 | 0.00 | 7 | 915.2 |
| 20260503004916 | 86 | 164 | 2.0 | 5.0 | 0.00 | 0.00 | 0.00 | 7 | 915.2 |
| 20260503004811 | 86 | 165 | 2.0 | 5.0 | 0.00 | 0.00 | 0.00 | 7 | 915.2 |
| 20260503004708 | 86 | 146 | 1.0 | 5.0 | 0.00 | 0.00 | 0.00 | 7 | 915.3 |
| 20260503004603 | 86 | 169 | 1.0 | 5.0 | 0.00 | 0.00 | 0.00 | 7 | 915.3 |
| 20260503004458 | 86 | 205 | 1.0 | 5.0 | 0.00 | 0.00 | 0.00 | 7 | 915.3 |
| 20260503004351 | 86 | 165 | 1.0 | 5.0 | 0.00 | 0.00 | 0.00 | 7 | 915.3 |
| 20260503004249 | 86 | 140 | 1.0 | 5.0 | 0.00 | 0.00 | 0.00 | 6 | 915.3 |
| 20260503004147 | 86 | 148 | 1.0 | 5.0 | 0.00 | 0.00 | 0.00 | 6 | 915.3 |
| 20260503004039 | 86 | 136 | 1.0 | 5.0 | 0.00 | 0.00 | 0.00 | 6 | 915.2 |
| 20260503003936 | 86 | 188 | 1.0 | 5.0 | 0.00 | 0.00 | 0.00 | 7 | 915.3 |
| 20260503003127 | 86 | 153 | 1.0 | 4.0 | 0.00 | 0.00 | 0.00 | 6 | 915.4 |
| 20260503003023 | 86 | 155 | 2.0 | 4.0 | 0.00 | 0.00 | 0.00 | 6 | 915.5 |
| 20260503002919 | 86 | 133 | 1.0 | 4.0 | 0.00 | 0.00 | 0.00 | 6 | 915.4 |
| 20260503002813 | 86 | 148 | 1.0 | 4.0 | 0.00 | 0.00 | 0.00 | 6 | 915.5 |
| 20260503002707 | 86 | 151 | 1.0 | 4.0 | 0.00 | 0.00 | 0.00 | 6 | 915.4 |
| 20260503002600 | 86 | 184 | 1.0 | 4.0 | 0.00 | 0.00 | 0.00 | 7 | 915.5 |
| 20260503002457 | 86 | 154 | 2.0 | 4.0 | 0.00 | 0.00 | 0.00 | 7 | 915.5 |
| 20260503002136 | 86 | 141 | 1.0 | 4.0 | 0.00 | 0.00 | 0.00 | 6 | 915.6 |
| 20260503002028 | 86 | 199 | 1.0 | 4.0 | 0.00 | 0.00 | 0.00 | 7 | 915.5 |
| 20260503001704 | 86 | 133 | 1.0 | 4.0 | 0.00 | 0.00 | 0.00 | 6 | 915.5 |
| 20260503001602 | 86 | 153 | 1.0 | 4.0 | 0.00 | 0.00 | 0.00 | 7 | 915.5 |
| 20260503001457 | 86 | 135 | 1.0 | 4.0 | 0.00 | 0.00 | 0.00 | 6 | 915.5 |
| 20260503000910 | 86 | 156 | 1.0 | 3.0 | 0.00 | 0.00 | 0.00 | 6 | 915.6 |
| 20260503000804 | 86 | 151 | 1.0 | 3.0 | 0.00 | 0.00 | 0.00 | 6 | 915.5 |
| 20260503000658 | 86 | 156 | 1.0 | 4.0 | 0.00 | 0.00 | 0.00 | 6 | 915.5 |
| 20260503000551 | 86 | 146 | 1.0 | 4.0 | 0.00 | 0.00 | 0.00 | 6 | 915.6 |
| 20260503000443 | 86 | 113 | 1.0 | 4.0 | 0.00 | 0.00 | 0.00 | 6 | 915.5 |
| 20260503000117 | 86 | 159 | 1.0 | 4.0 | 0.00 | 0.00 | 0.00 | 6 | 915.6 |
| 20260503000015 | 86 | 161 | 1.0 | 4.0 | 0.00 | 0.00 | 0.00 | 6 | 915.5 |
| 20260502235649 | 86 | 157 | 1.0 | 6.0 | 0.00 | 0.00 | 0.00 | 6 | 915.6 |
| 20260502235542 | 86 | 188 | 1.0 | 6.0 | 0.00 | 0.00 | 0.00 | 7 | 915.6 |
| 20260502235437 | 86 | 140 | 1.0 | 6.0 | 0.00 | 0.00 | 0.00 | 6 | 915.6 |
| 20260502235329 | 86 | 171 | 1.0 | 6.0 | 0.00 | 0.00 | 0.00 | 7 | 915.6 |
| 20260502235005 | 86 | 150 | 1.0 | 6.0 | 0.00 | 0.00 | 0.00 | 7 | 915.7 |
| 20260502234904 | 86 | 90 | 1.0 | 6.0 | 0.00 | 0.00 | 0.00 | 7 | 915.7 |
| 20260502234800 | 86 | 143 | 1.0 | 6.0 | 0.00 | 0.00 | 0.00 | 7 | 915.7 |
| 20260502234652 | 86 | 142 | 2.0 | 9.0 | 0.00 | 0.00 | 0.00 | 7 | 915.6 |
| 20260502234548 | 86 | 157 | 2.0 | 9.0 | 0.00 | 0.00 | 0.00 | 7 | 915.6 |
| 20260502234440 | 86 | 163 | 2.0 | 9.0 | 0.00 | 0.00 | 0.00 | 7 | 915.7 |
| 20260502234337 | 86 | 166 | 2.0 | 9.0 | 0.00 | 0.00 | 0.00 | 7 | 915.7 |
| 20260502234233 | 86 | 175 | 2.0 | 9.0 | 0.00 | 0.00 | 0.00 | 7 | 915.7 |